This is the latest recevied weather packets stored in our database for station/object N5LSN. If no packets are shown the sender has not sent any weather packets the latest 10 day(s).
| Time | Temp. | Humidity | Pressure | Rain* | Wind** | Luminosity | Snow |
|---|---|---|---|---|---|---|---|
| 1777421378 | 24.44° C | 95% | 1009.9 hPa | 0 mm | - | 5 W/m² | - |
| 1777421075 | 24.44° C | 95% | 1010 hPa | 0 mm | - | 5 W/m² | - |
| 1777420772 | 24.44° C | 95% | 1010.1 hPa | 0 mm | - | 4 W/m² | - |
| 1777420468 | 24.44° C | 95% | 1010.3 hPa | 0 mm | - | 7 W/m² | - |
| 1777420165 | 24.44° C | 95% | 1010.2 hPa | 0 mm | - | 8 W/m² | - |
| 1777419860 | 24.44° C | 94% | 1010 hPa | 0 mm | - | 9 W/m² | - |
| 1777419558 | 24.44° C | 95% | 1010.3 hPa | 0 mm | - | 11 W/m² | - |
| 1777419252 | 24.44° C | 95% | 1010.3 hPa | 0 mm | - | 8 W/m² | - |
| 1777418949 | 24.44° C | 94% | 1010.6 hPa | 0 mm | - | 9 W/m² | - |
| 1777418644 | 24.44° C | 94% | 1010.1 hPa | 0 mm | - | 14 W/m² | - |
| 1777418341 | 24.44° C | 94% | 1010 hPa | 0 mm | - | 12 W/m² | - |
| 1777418036 | 24.44° C | 94% | 1010.1 hPa | 0 mm | - | 8 W/m² | - |
| 1777417732 | 25° C | 94% | 1010 hPa | 0 mm | - | 8 W/m² | - |
| 1777417428 | 25° C | 94% | 1010 hPa | 0 mm | - | 19 W/m² | - |
| 1777417125 | 25° C | 94% | 1010 hPa | 0 mm | - | 18 W/m² | - |
| 1777416820 | 25° C | 93% | 1009.9 hPa | 0 mm | - | 16 W/m² | - |
| 1777416516 | 25° C | 93% | 1009.7 hPa | 0 mm | - | 21 W/m² | - |
| 1777416212 | 25° C | 93% | 1009.6 hPa | 0 mm | - | 38 W/m² | - |
| 1777415912 | 25° C | 93% | 1009.6 hPa | 0 mm | - | 49 W/m² | - |
| 1777415607 | 25° C | 92% | 1009.7 hPa | 0 mm | - | 48 W/m² | - |
| 1777415303 | 25° C | 92% | 1009.7 hPa | 0 mm | - | 82 W/m² | - |
| 1777414998 | 25.56° C | 92% | 1009.8 hPa | 0 mm | - | 92 W/m² | - |
| 1777414692 | 25.56° C | 93% | 1009.7 hPa | 0 mm | - | 107 W/m² | - |
| 1777414388 | 25.56° C | 94% | 1009.6 hPa | 0 mm | - | 143 W/m² | - |
| 1777414088 | 25.56° C | 94% | 1009.7 hPa | 0 mm | - | 162 W/m² | - |
* Rain latest hour (hover to see other rain measurements)
** Current wind speed in m/s (hover to see current wind gust speed)